Tracking 19562 objects as of 23-Mar-2019
HD Live streaming from Space Station
objects crossing your sky now

COSMOS 1692

Track COSMOS 1692 now!
10-day predictions
COSMOS 1692 is classified as:


NORAD ID: 16140
Int'l Code: 1985-094C
Perigee: 1,397.0 km
Apogee: 1,422.7 km
Inclination: 82.6 °
Period: 113.8 minutes
Semi major axis: 7780 km
RCS: 0.193 m2 (medium)
Launch date: October 9, 1985
Source: Commonwealth of Independent States (former USSR) (CIS)
Launch site: PLESETSK MISSILE AND SPACE COMPLEX (PKMTR)
aabbcc
Your satellite tracking list
Your tracking list is empty




NASA's NSSDC Master Catalog

Two Line Element Set (TLE):
1 16140U 85094C   19081.90369398 +.00000019 +00000-0 +48276-4 0  9995
2 16140 082.5979 120.0988 0016526 267.6517 208.3270 12.64908583544300
Source of the keplerian elements: AFSPC